Location: Olsztyn
(53.7767°N, 20.4765°E)
Time: 03:03:14
(UTC+01:00)

ISS - Visible Passes

Search period start: 27 November 2022 00:00
Search period end: 07 December 2022 00:00
Orbit: 411 x 421 km, 51.6° (Epoch: 26 November)

Date Brightness Start Highest point End Pass type
(mag) Time Alt. Az. Time Alt. Az. Time Alt. Az.
27 Nov -2.9 16:16:56 10° WSW 16:20:07 44° SSE 16:23:19 10° E visible
27 Nov -3.3 17:53:21 10° W 17:56:21 56° SSW 17:56:21 56° SSW visible
28 Nov -3.5 17:04:45 10° W 17:08:03 60° S 17:09:38 27° ESE visible
28 Nov -1.0 18:41:24 10° W 18:42:31 19° W 18:42:31 19° W visible
29 Nov -3.3 16:16:08 10° WSW 16:19:26 57° S 16:22:43 10° E visible
29 Nov -3.1 17:52:44 10° W 17:55:50 48° SSW 17:55:50 48° SSW visible
30 Nov -3.3 17:04:03 10° W 17:07:20 56° S 17:09:10 23° ESE visible
30 Nov -0.9 18:40:53 10° W 18:42:03 17° WSW 18:42:03 17° WSW visible
01 Dec -3.3 16:15:23 10° W 16:18:40 60° S 16:21:58 10° ESE visible
01 Dec -2.4 17:52:05 10° W 17:55:07 33° SSW 17:55:26 32° S visible
02 Dec -2.7 17:03:19 10° W 17:06:29 41° SSW 17:08:54 15° SE visible
02 Dec -0.7 18:40:43 10° WSW 18:41:48 13° SW 18:41:48 13° SW visible
03 Dec -2.9 16:14:34 10° W 16:17:49 50° SSW 16:21:03 10° ESE visible
03 Dec -1.4 17:51:34 10° W 17:54:04 20° SSW 17:55:24 16° S visible
04 Dec -1.7 17:02:36 10° W 17:05:27 27° SSW 17:08:19 10° SSE visible
05 Dec -2.1 16:13:43 10° W 16:16:48 34° SSW 16:19:51 10° SE visible
05 Dec -0.5 17:51:58 10° SW 17:52:47 11° SW 17:53:36 10° SSW visible
06 Dec -0.8 17:02:09 10° WSW 17:04:13 15° SW 17:06:15 10° S visible
